Wind_Speed
51 53 53 53 53 53 52 51 50 50 50 50 50 50 51 51 51 51 50 49 47 44 41 39 39 39 40 39 39 39 39 39 40 40 42 45 48 51 54 57 59 60 61 61 61 62 63 65 66 67 68 68 68 67 64 58 53 50 49 49 49 49 48 48 48 49 49 48 46 45 44 43 43 43 42 41 40 39 37 37 36 36 36 37 38 39
55 56 57 58 58 58 58 57 55 54 54 53 53 52 52 51 51 51 51 50 49 47 45 42 40 39 40 40 40 40 41 42 42 41 40 42 44 47 51 54 57 59 61 63 64 65 66 66 66 65 64 64 64 63 60 55 52 50 49 50 49 49 49 49 49 50 50 49 47 46 45 45 45 45 44 44 42 41 40 39 38 38 38 38 39 40
58 59 60 60 60 61 61 60 60 59 58 57 57 56 55 54 53 53 52 51 50 49 47 45 43 41 41 41 41 42 44 44 44 43 42 41 41 43 46 49 52 56 59 62 64 65 66 65 63 60 59 59 59 59 57 54 51 50 50 50 50 50 50 50 51 51 52 51 49 48 47 47 47 48 47 46 45 44 43 42 41 40 40 40 41 41
60 61 61 61 61 61 61 61 61 61 61 60 60 59 59 58 58 57 55 54 52 51 50 49 47 45 44 43 43 44 44 45 46 46 44 42 41 42 43 44 46 49 53 57 60 62 63 61 57 55 54 54 55 56 55 54 52 51 50 50 50 50 51 51 52 53 54 54 52 51 50 50 50 50 50 50 49 48 46 45 44 43 42 43 43 43
60 60 60 60 59 59 59 60 60 60 61 61 61 61 61 61 61 61 60 58 57 56 54 52 51 49 47 46 46 46 46 47 47 48 47 45 43 43 43 42 42 43 46 49 52 55 56 54 52 50 50 50 52 53 54 54 53 51 51 51 51 51 52 53 54 55 56 56 55 53 52 52 52 53 53 52 51 50 49 48 47 46 45 45 45 44
58 58 58 58 58 58 58 58 58 59 59 59 60 60 61 62 62 62 62 61 60 59 57 56 54 53 52 50 49 49 49 49 50 50 49 48 46 45 45 44 43 42 42 44 46 48 49 48 47 46 46 47 49 51 52 53 52 52 51 51 51 52 53 54 55 56 57 57 56 55 54 54 55 55 55 54 52 50 49 49 48 47 47 46 46 45
56 56 56 56 56 57 57 57 58 58 58 59 59 59 60 61 62 62 62 62 61 60 59 58 57 56 55 53 53 52 52 53 53 54 53 52 50 48 47 46 45 43 42 43 43 44 45 44 44 44 44 45 46 48 49 51 52 52 51 51 52 53 54 55 56 57 57 57 56 56 56 56 57 57 57 55 53 51 50 49 48 48 47 46 46 45
55 55 55 55 55 56 57 58 59 60 60 60 60 60 60 60 61 61 62 62 61 60 59 58 58 57 57 56 55 55 55 56 56 57 56 55 53 52 50 48 46 45 44 44 44 44 44 44 44 43 44 44 44 45 47 49 51 52 52 52 52 53 54 56 57 58 58 57 57 58 58 58 58 59 58 57 55 54 53 51 49 48 47 47 46 46
56 55 55 55 55 56 57 58 60 61 62 62 62 62 62 62 61 61 61 61 61 60 59 58 58 57 58 58 58 58 58 58 58 58 58 57 56 55 52 49 47 46 45 45 45 45 45 44 44 44 44 44 44 44 45 48 50 52 52 52 53 54 55 57 59 60 60 60 60 61 61 61 61 60 60 60 59 58 57 55 53 51 49 48 47 46
57 56 56 56 56 56 57 58 60 61 62 63 64 65 65 64 63 62 62 62 62 61 60 60 59 59 59 59 59 60 60 60 60 60 59 58 58 57 55 51 48 47 46 46 46 46 46 45 45 45 44 44 44 44 45 47 50 52 53 54 54 55 57 59 61 63 64 64 64 64 64 64 63 63 62 62 62 61 60 59 57 55 53 51 49 47
58 57 57 57 57 57 58 58 59 60 60 62 63 65 65 66 65 64 63 63 62 62 62 61 61 62 61 61 61 62 62 63 62 62 60 59 58 57 56 53 50 47 46 46 47 47 46 46 46 46 45 45 45 45 46 48 50 53 55 56 57 58 60 62 64 66 67 67 67 67 66 66 66 65 65 64 64 63 62 61 60 59 58 55 53 50
57 57 57 58 58 59 59 60 60 60 59 60 61 62 63 65 66 65 64 64 63 63 63 63 64 64 65 64 64 64 64 65 65 64 62 60 58 57 55 54 51 48 47 47 47 47 47 47 47 47 46 46 46 47 48 49 51 54 56 58 59 61 63 65 67 68 68 68 67 67 66 66 66 66 67 66 66 66 65 64 63 62 61 59 57 55
57 57 57 58 59 60 61 61 60 60 60 60 60 61 62 63 64 65 64 64 64 63 63 64 65 66 67 67 67 66 66 67 67 66 65 63 61 59 57 55 52 50 48 48 48 48 48 48 48 48 48 48 48 49 50 51 53 55 57 59 61 63 65 67 68 68 68 67 67 66 65 65 65 66 66 67 67 67 66 66 65 64 63 62 61 59
56 57 57 57 59 60 60 61 60 60 60 60 60 60 60 61 62 63 63 63 64 64 64 64 65 66 67 68 68 68 68 68 68 68 67 66 64 63 61 58 55 52 50 49 49 49 49 49 49 49 49 49 50 50 51 52 54 55 57 60 62 65 66 67 68 68 67 66 65 65 64 64 64 65 65 66 67 67 67 67 66 65 64 63 62 61
57 57 57 57 57 58 59 59 59 59 59 59 59 59 59 60 60 61 61 61 62 64 64 64 65 66 67 68 68 69 69 69 70 70 69 67 65 64 62 59 56 54 53 51 50 50 49 49 50 50 50 50 51 51 52 53 54 55 57 59 61 64 65 66 66 66 65 64 64 63 63 62 63 63 64 65 66 66 67 67 67 66 65 64 63 63
57 58 59 59 59 58 58 58 58 58 58 59 58 58 58 58 59 59 59 60 61 62 62 63 64 65 66 67 68 68 69 69 70 71 70 68 67 65 62 59 57 55 54 53 52 51 50 50 50 51 51 51 51 52 52 53 53 54 55 57 59 60 61 62 63 63 62 61 60 59 58 58 59 60 62 63 65 66 67 67 67 67 67 66 65 64
52 54 56 57 58 59 59 59 59 59 59 59 58 57 57 57 57 58 58 59 60 60 61 62 63 63 63 64 65 67 67 67 69 70 70 69 68 66 64 60 58 55 54 54 53 52 51 51 51 51 51 52 52 52 52 53 53 53 54 54 55 56 57 58 59 59 59 58 56 54 53 52 53 54 57 59 62 65 66 67 68 68 67 67 66 65
48 48 50 51 53 54 56 57 58 59 60 60 59 59 58 57 57 57 57 58 58 58 59 60 61 62 62 61 62 63 63 63 65 68 69 69 69 68 65 62 59 57 55 54 54 53 52 51 51 51 52 52 52 52 53 53 53 53 53 52 52 53 54 55 55 56 55 54 52 50 49 48 48 49 51 54 57 60 62 63 64 64 64 65 65 65
47 47 47 47 48 49 50 52 53 55 57 58 59 59 59 59 58 57 56 56 56 57 58 58 60 61 61 60 60 59 59 59 61 64 65 67 68 68 67 64 62 59 57 56 55 54 53 53 52 52 52 52 52 53 53 53 53 52 52 51 51 52 52 53 54 54 54 53 51 49 47 46 46 47 48 49 51 53 54 55 55 56 57 58 59 60
47 47 47 47 47 47 48 49 50 51 52 54 55 56 56 58 58 58 58 57 57 57 57 57 58 59 60 60 59 58 56 56 57 59 62 64 66 67 67 66 64 62 60 58 56 55 55 54 54 54 54 54 53 53 53 53 53 52 52 51 51 52 53 54 55 55 55 53 52 50 48 47 47 47 47 47 47 47 47 47 48 48 50 51 53 54
46 46 46 46 46 46 47 48 48 49 49 50 51 51 53 54 55 56 58 58 58 58 57 57 57 58 58 58 58 57 56 54 53 54 57 60 62 64 66 66 65 64 62 59 58 57 56 56 56 56 56 55 55 54 54 54 54 53 53 53 53 54 55 56 56 57 56 55 54 52 50 49 48 47 47 47 46 45 44 44 44 45 47 48 50 51
44 44 45 45 45 46 47 47 47 47 47 47 48 48 50 50 50 52 54 55 57 58 58 58 58 58 58 58 57 57 55 53 52 52 53 54 56 60 62 64 65 65 63 61 60 59 58 58 58 57 57 56 55 54 54 54 54 54 55 55 55 55 56 57 57 57 57 56 55 54 52 50 49 48 48 48 47 47 46 45 45 45 46 48 49 50
41 42 43 44 44 45 45 45 45 45 45 45 45 46 47 47 48 48 49 50 52 54 56 58 59 59 59 58 58 57 55 54 53 52 50 49 51 54 56 59 62 64 64 63 62 61 60 59 59 59 58 57 56 55 54 53 53 54 54 54 54 54 54 55 56 56 56 55 55 54 53 51 49 48 48 48 49 49 48 47 47 47 47 48 49 50
39 40 40 41 42 43 43 43 44 44 43 43 43 44 45 45 46 46 46 47 48 49 52 54 56 58 59 59 58 57 56 55 54 53 51 50 49 49 49 52 56 60 63 64 64 63 62 62 61 60 60 59 58 56 55 54 53 53 52 52 52 52 52 53 53 54 54 54 54 53 52 50 48 47 47 47 48 49 49 49 49 49 49 49 49 48
37 38 38 39 39 40 41 41 42 42 42 42 42 42 43 43 43 43 44 44 45 46 47 49 50 53 57 59 60 59 58 56 55 54 54 53 51 48 46 45 48 53 58 62 64 64 64 64 63 63 62 61 61 59 57 56 54 53 52 51 50 50 51 51 51 52 52 52 52 51 50 49 47 46 46 46 47 48 49 50 51 50 50 48 47 46
37 37 37 37 37 37 38 39 39 40 41 41 41 41 41 41 40 40 40 41 42 43 44 45 46 48 52 55 58 60 61 59 57 56 55 55 53 51 48 44 44 47 52 57 61 63 64 65 65 65 65 65 64 63 60 58 55 53 51 50 50 50 50 50 50 50 51 51 50 50 49 47 46 46 45 46 47 48 50 51 51 50 48 47 45 44
36 36 36 35 35 35 36 36 37 37 38 39 40 41 40 40 39 38 39 39 40 40 41 42 43 44 46 48 52 56 60 61 60 58 57 56 54 53 51 47 45 44 46 51 55 59 62 64 66 67 67 68 68 66 63 59 55 52 50 49 49 49 49 49 49 50 50 50 49 49 48 47 46 46 46 46 48 49 50 51 50 49 47 46 45 44
36 35 34 34 34 34 34 34 35 35 36 37 38 39 39 39 38 38 38 38 37 38 39 40 41 41 42 43 45 49 53 57 60 61 59 57 55 54 53 50 46 44 43 45 49 53 57 59 61 63 65 67 68 67 64 60 55 51 49 48 48 48 49 49 49 50 50 50 50 49 49 48 47 47 47 48 49 50 51 50 49 47 46 45 45 44
36 34 33 32 32 32 32 32 33 33 34 35 35 36 37 37 37 37 37 36 35 36 37 38 38 39 39 40 41 42 44 49 55 58 59 57 56 55 54 51 48 45 43 43 44 46 49 51 53 55 58 62 64 65 63 58 54 51 49 49 48 49 49 50 50 50 50 50 50 50 50 49 49 49 49 50 51 51 51 49 48 47 46 46 46 46
35 33 32 30 30 29 29 30 31 32 32 33 34 35 35 35 36 36 36 35 34 34 35 35 36 37 38 38 38 38 38 41 45 50 54 56 57 56 54 52 50 47 44 43 42 41 42 43 44 46 51 56 60 61 60 56 53 52 51 50 50 50 51 51 52 52 52 51 51 51 51 51 51 50 51 51 51 51 50 49 47 46 46 47 48 49
34 32 31 29 28 27 27 28 29 29 30 31 32 33 33 34 34 34 35 34 34 34 33 33 34 35 35 35 35 35 35 35 37 41 47 51 55 57 55 54 52 50 46 44 43 42 40 38 37 40 46 51 56 58 58 56 54 53 52 52 51 51 52 52 53 53 52 52 52 52 52 52 51 51 50 50 50 49 49 48 47 46 46 47 49 50
33 32 30 29 27 26 26 26 27 28 28 29 30 31 31 32 32 33 33 33 33 33 32 32 32 32 33 33 34 34 34 33 33 35 40 44 50 54 56 56 55 53 50 47 46 45 43 39 35 34 39 46 53 56 57 56 55 54 54 53 52 52 53 53 53 53 53 53 53 53 52 52 51 50 49 48 48 48 48 46 45 44 44 45 47 49
31 31 29 28 27 26 25 25 26 26 27 27 28 28 29 29 30 31 31 32 32 32 32 31 31 31 31 31 32 32 31 30 31 32 35 38 43 48 53 55 56 56 55 52 49 48 45 42 37 33 33 39 46 51 55 56 56 55 54 53 53 53 53 53 53 52 52 52 52 52 52 51 50 49 48 48 48 47 46 45 43 42 42 44 45 47
30 29 28 27 26 25 25 25 25 26 26 26 26 26 26 26 27 28 29 30 30 30 31 31 30 30 30 29 29 29 28 28 28 30 31 33 36 41 46 50 54 56 57 56 54 51 48 45 41 36 33 34 37 42 48 51 53 54 53 53 53 52 53 53 52 52 51 51 51 51 51 50 50 49 49 48 48 47 45 43 42 42 42 43 44 45
28 28 27 26 25 24 24 24 25 25 26 26 25 25 25 24 25 25 26 27 27 28 29 29 29 29 29 29 28 27 27 26 26 27 28 30 32 35 38 43 49 53 55 57 57 55 52 48 44 41 37 34 33 36 40 44 48 50 51 52 52 52 52 52 52 51 51 51 51 50 50 50 49 49 49 49 47 46 44 43 43 43 43 43 43 44
27 27 26 25 24 23 23 23 24 25 25 25 25 24 24 23 23 23 23 24 24 25 26 27 28 28 28 28 27 27 26 25 24 24 26 28 30 31 32 36 41 46 49 53 56 57 56 53 49 45 42 39 36 35 35 38 42 45 47 49 50 50 50 51 51 51 50 50 50 50 50 49 49 49 49 48 47 45 44 44 44 43 43 42 43 44
27 26 25 24 23 23 22 23 23 24 24 24 24 23 23 23 22 22 21 22 22 23 23 24 25 26 26 27 27 26 26 25 24 24 25 26 27 28 29 31 34 37 42 47 52 55 57 57 54 51 46 44 41 39 37 35 36 39 42 44 45 47 48 49 50 50 50 50 50 49 49 48 48 48 48 47 46 46 45 45 45 45 44 43 43 43
26 25 24 24 23 22 22 22 22 23 23 23 23 23 22 22 21 21 21 20 21 21 21 22 22 23 24 24 25 25 25 24 24 24 24 24 25 26 27 28 29 31 35 40 45 50 54 56 57 55 52 49 46 44 42 39 36 36 37 39 42 44 46 47 48 49 49 49 49 48 48 47 47 46 46 46 46 46 47 46 46 46 45 45 44 44
25 25 24 23 22 22 21 21 21 22 22 22 23 23 22 22 21 21 20 20 20 20 20 20 20 21 21 22 23 23 24 23 23 23 23 23 24 25 25 26 26 27 30 33 37 43 49 53 56 57 57 54 51 48 46 44 41 39 37 37 39 41 43 44 46 47 48 48 48 47 47 46 46 45 45 46 46 47 47 47 46 46 46 46 46 46
25 24 24 23 22 22 22 21 21 21 22 22 23 23 23 22 21 21 20 20 19 19 19 19 19 19 20 20 21 22 22 22 22 22 22 23 23 24 24 25 25 26 27 28 31 35 41 47 53 57 58 57 55 52 50 48 46 44 40 37 37 38 39 41 43 45 46 47 47 47 46 45 45 45 45 46 47 47 47 47 46 46 47 47 48 48
25 24 23 23 22 22 22 22 21 21 22 22 23 23 23 22 22 21 20 20 19 19 18 18 18 17 18 18 19 20 21 21 22 22 22 22 22 23 23 24 25 25 25 26 27 29 33 38 45 51 56 57 57 55 53 52 50 48 44 41 39 38 38 39 41 43 45 46 47 46 46 45 45 45 46 47 48 48 47 46 46 46 46 47 48 48
25 24 24 23 22 22 22 22 21 22 22 22 23 23 23 23 22 22 21 20 20 19 19 18 17 17 16 16 17 18 20 21 21 21 22 22 22 23 23 23 24 24 24 25 25 26 28 31 36 42 49 54 56 57 57 55 54 52 49 46 43 40 39 38 39 41 43 45 47 47 47 46 46 47 48 48 49 48 47 46 46 46 46 46 47 48
26 25 24 24 23 23 22 22 22 22 22 22 23 23 23 23 23 23 23 22 21 21 20 19 19 18 17 16 16 16 17 19 20 21 22 22 22 23 23 23 23 23 23 24 24 24 25 26 29 33 40 47 51 55 57 57 57 56 54 51 47 43 41 39 39 40 42 45 46 47 47 48 48 48 49 50 50 49 48 47 46 46 46 45 45 46
26 26 25 25 24 24 23 23 23 23 23 23 23 23 23 24 24 24 24 24 23 23 22 21 21 20 19 18 17 16 16 17 19 20 21 22 23 23 23 24 24 23 23 23 23 23 23 23 25 27 31 36 43 48 53 55 57 57 57 55 52 48 45 42 40 39 41 43 45 47 48 48 49 50 50 51 51 50 49 48 47 46 46 45 44 44
27 26 25 25 24 24 24 24 24 24 24 24 24 24 24 24 25 25 25 25 25 24 24 23 23 22 22 20 19 18 17 16 17 18 20 21 22 23 23 24 24 24 24 23 23 23 22 22 23 24 25 29 34 40 45 49 53 55 56 57 56 53 50 46 42 41 41 42 44 46 47 48 49 50 51 52 52 51 50 49 47 47 46 45 44 44
27 26 25 25 24 24 24 24 24 24 24 24 24 25 25 25 25 26 26 26 26 26 26 25 25 25 24 23 22 21 20 18 17 17 18 19 21 22 23 24 24 24 24 24 24 23 22 22 22 22 22 24 28 32 37 41 46 49 52 54 55 55 53 50 46 44 42 42 43 44 46 47 49 50 51 52 53 52 51 50 48 47 46 45 45 44
27 26 26 25 25 24 24 24 24 24 24 24 24 25 25 25 26 26 27 27 27 27 27 27 27 27 27 26 25 24 23 22 20 19 18 19 20 21 22 23 24 24 25 25 25 25 24 23 23 22 22 22 24 27 30 33 38 42 45 49 51 53 54 53 51 48 45 43 43 43 44 46 47 49 50 51 52 52 52 51 49 48 46 45 45 44
27 27 26 26 25 25 24 24 24 24 23 23 24 24 25 25 26 26 27 27 28 28 28 28 28 28 28 27 27 26 26 25 24 22 21 21 20 21 21 22 23 23 24 25 26 26 25 25 24 23 23 23 23 24 25 27 31 35 39 42 45 48 51 53 54 52 49 47 45 44 43 44 45 46 48 49 50 51 51 51 50 48 47 46 45 44
28 27 27 27 26 25 25 25 24 24 24 23 23 23 24 24 25 26 27 27 28 28 28 28 28 28 28 28 27 27 27 26 26 25 24 24 23 22 22 22 22 23 23 24 25 25 26 26 25 25 24 24 23 24 24 25 27 30 33 36 40 44 47 51 54 55 53 51 49 46 45 44 44 45 46 46 48 49 50 50 50 49 48 46 45 44
28 27 27 27 26 26 26 25 25 25 24 24 23 23 23 23 24 25 26 26 27 27 28 28 28 28 28 28 27 27 27 27 26 26 25 25 25 24 24 24 24 24 24 24 24 24 25 25 25 25 25 25 24 24 24 25 26 27 29 32 36 40 43 48 52 55 56 55 53 50 48 46 44 44 44 45 46 47 48 49 49 49 48 47 46 45
27 27 27 27 27 26 26 26 25 25 25 24 24 23 23 23 23 24 24 25 26 26 26 27 27 27 27 27 27 27 27 27 27 26 26 26 26 26 26 26 26 26 25 25 24 24 24 24 24 24 25 26 26 25 25 26 26 27 28 31 33 36 40 44 49 53 56 57 56 55 52 49 46 45 44 44 44 45 46 47 48 49 49 48 47 46
Wind_Direction
259 261 262 262 263 264 264 265 266 267 269 271 272 273 274 274 274 274 274 274 272 270 268 264 259 254 251 249 247 247 248 251 253 254 253 251 250 249 248 247 246 245 244 244 243 244 244 245 247 249 251 253 256 258 259 256 251 247 247 248 249 249 248 246 244 242 241 241 242 244 246 246 246 246 245 244 243 242 242 242 243 245 246 247 248 248
260 261 263 264 265 265 265 265 264 264 265 266 267 268 270 271 271 272 272 272 272 272 270 266 261 255 250 248 247 248 251 255 258 259 256 254 252 250 250 249 248 247 246 245 244 244 245 246 248 250 253 255 258 259 258 252 247 244 245 247 248 247 246 244 243 241 240 241 242 243 244 245 245 244 244 244 243 243 242 242 242 243 243 244 244 245
262 263 264 265 266 266 266 266 266 265 265 264 265 265 266 267 268 269 270 270 271 271 271 269 264 258 252 249 248 249 253 259 263 264 262 259 256 254 252 251 250 249 248 247 247 247 247 248 249 252 254 256 258 257 254 248 243 241 243 245 246 246 244 243 241 240 240 241 242 243 244 244 243 243 244 244 243 243 242 242 241 241 241 241 241 242
265 266 266 266 266 266 266 266 266 266 266 266 265 265 265 266 266 267 267 268 269 269 269 269 266 262 257 253 250 250 253 259 264 266 266 264 262 260 259 257 255 253 251 249 248 248 248 248 250 251 253 255 255 254 250 245 241 240 241 243 244 244 243 242 241 241 241 242 243 243 243 243 242 242 243 244 245 245 244 243 241 240 239 241 241 241
267 268 268 268 267 267 267 266 266 266 266 266 266 266 266 266 266 266 266 266 267 268 269 268 267 264 261 257 254 253 254 258 262 265 266 264 263 262 263 263 262 260 256 252 248 246 246 246 248 249 251 252 251 250 247 243 240 238 239 241 242 242 242 242 242 242 242 243 243 243 242 242 241 242 243 245 247 247 246 245 243 241 240 242 243 243
267 267 267 268 268 268 268 267 267 266 266 266 266 265 266 266 266 266 266 266 266 267 267 268 267 265 263 260 257 255 256 258 261 264 265 264 262 261 261 262 263 262 259 253 248 244 243 243 245 247 248 249 249 248 246 242 239 237 238 239 241 241 242 242 242 243 243 243 243 242 241 241 241 242 244 247 249 249 248 246 245 243 242 244 244 243
267 267 267 268 268 268 269 269 268 268 267 267 266 266 265 265 265 265 265 265 266 266 266 266 266 265 263 261 259 257 257 260 263 265 265 263 261 260 259 259 259 258 256 252 247 243 241 241 243 245 246 247 248 247 245 241 238 237 237 238 239 240 241 241 242 242 242 242 241 241 241 241 241 241 243 247 250 251 250 249 248 246 245 245 245 244
267 267 267 268 268 269 270 270 270 270 269 269 268 268 267 266 266 266 265 265 265 265 265 265 265 264 263 262 260 259 259 262 265 266 266 264 262 260 259 258 257 255 253 250 246 243 242 242 242 243 245 246 247 246 244 241 238 236 236 236 238 239 240 241 241 241 241 241 241 241 242 242 242 242 243 245 248 250 251 251 250 248 247 246 246 245
267 267 267 267 268 269 270 271 271 270 270 270 269 269 268 268 267 267 267 266 266 266 265 265 265 265 264 263 262 261 262 264 266 267 265 263 261 260 260 258 257 254 251 248 245 243 243 242 243 243 244 245 246 245 243 241 238 235 235 235 236 238 239 239 240 240 241 241 243 244 245 245 245 245 245 245 246 248 249 249 249 248 248 247 247 246
266 266 266 267 268 269 269 270 271 271 270 270 269 269 268 268 268 268 268 268 268 267 266 266 266 266 265 265 264 264 264 266 267 267 265 262 260 259 258 258 257 253 250 247 245 243 243 243 242 243 243 244 245 245 243 241 238 235 234 234 234 236 237 238 239 240 242 243 245 247 248 249 249 249 248 248 248 248 249 249 249 248 248 248 248 248
265 265 266 267 268 268 269 270 270 271 270 270 269 269 268 268 268 268 268 268 268 268 267 267 267 267 266 266 265 265 266 266 267 266 263 261 259 258 257 257 256 252 248 246 244 243 242 242 242 242 243 243 244 244 243 242 239 236 234 233 233 234 235 237 238 240 242 245 247 249 251 252 252 252 252 251 251 251 251 250 250 249 248 248 248 249
264 264 265 266 267 268 269 270 270 271 271 270 269 268 268 268 267 267 266 266 267 267 268 268 268 267 267 266 265 265 265 266 265 264 262 260 260 259 258 256 254 250 247 244 243 242 241 241 241 241 241 242 242 243 242 242 240 238 236 235 234 234 235 237 239 241 244 246 249 251 253 253 254 254 254 254 254 254 253 252 251 250 249 249 248 249
263 263 264 265 265 266 267 268 269 269 270 269 268 267 267 267 267 266 265 265 265 265 266 267 268 267 267 265 265 264 265 265 265 264 262 262 262 262 261 258 253 248 245 243 242 241 240 240 240 240 240 240 241 241 241 241 241 240 239 237 237 237 238 239 241 244 247 250 253 255 256 256 256 255 255 255 255 255 254 253 252 251 250 249 249 249
263 262 262 262 263 264 265 266 266 266 267 266 266 266 266 266 266 265 265 264 264 264 265 265 265 266 265 265 264 264 264 264 264 264 263 262 263 265 265 263 257 249 243 241 240 240 240 240 240 240 239 239 240 240 241 241 241 241 241 240 240 240 242 243 245 248 251 253 255 257 258 259 258 257 256 256 255 255 254 253 252 251 251 250 250 250
265 264 262 261 261 261 262 263 263 263 263 263 263 263 263 264 264 264 264 263 263 263 263 263 263 263 263 262 263 263 263 264 264 263 262 261 262 263 265 264 260 252 244 240 239 239 239 239 239 239 239 240 240 240 241 242 243 243 243 243 243 244 245 247 249 251 252 254 256 258 259 260 260 259 258 256 255 254 253 252 251 251 250 250 250 251
269 268 267 265 263 263 262 262 261 261 261 260 260 260 260 260 261 261 262 262 262 262 261 261 261 260 260 260 260 260 260 261 262 262 261 261 260 261 262 262 260 254 245 240 238 238 238 238 238 239 239 240 240 241 242 243 244 245 246 247 247 248 249 250 251 252 254 255 256 257 258 259 259 258 258 257 255 254 253 251 251 250 250 251 251 252
274 273 271 270 269 268 266 265 264 263 261 260 259 258 258 258 258 258 258 259 259 259 259 258 257 256 256 255 255 256 256 256 257 259 259 259 259 259 259 259 258 254 247 241 238 238 238 238 238 238 239 239 240 241 242 244 245 247 248 249 250 251 252 253 253 254 254 254 255 255 255 255 255 254 254 254 253 253 252 251 251 251 251 251 251 252
278 277 275 274 273 272 271 270 269 267 265 264 262 261 259 258 257 256 256 256 256 256 255 255 254 253 253 249 248 249 250 249 250 252 254 255 256 256 256 256 256 253 248 242 239 238 238 238 238 238 238 239 240 241 242 243 245 246 248 249 250 251 252 253 253 253 252 252 251 250 250 249 248 248 248 248 248 249 249 250 250 251 251 251 252 252
282 281 280 279 277 275 274 273 272 271 270 268 267 265 264 262 260 258 256 255 254 253 253 252 251 251 250 247 246 245 245 243 244 246 248 250 251 253 253 253 253 252 248 244 241 239 238 237 237 237 237 238 239 239 240 242 243 244 246 247 248 249 249 249 249 248 247 246 245 244 243 242 242 242 242 242 243 244 246 247 249 250 250 251 251 252
288 286 285 283 282 280 278 276 274 273 272 271 269 268 267 266 264 262 260 258 256 254 253 251 250 249 248 246 244 243 241 240 240 241 243 244 246 248 249 249 250 249 247 244 242 240 239 237 236 236 236 236 237 238 238 239 240 241 243 243 244 244 244 244 244 243 242 241 240 239 239 238 238 238 238 239 240 242 244 246 247 249 250 250 251 251
292 291 290 288 287 285 282 279 278 276 275 274 273 271 270 268 267 265 263 261 259 257 255 252 250 249 247 246 243 242 241 239 237 237 238 239 240 241 243 244 245 246 245 244 242 241 239 238 237 237 236 237 237 237 238 238 238 239 240 240 241 241 242 242 242 241 241 240 239 239 238 237 237 236 236 237 238 240 243 245 247 248 249 250 250 250
295 294 293 292 291 289 286 285 283 281 279 279 277 275 273 271 269 267 265 264 262 260 258 255 252 250 248 246 245 244 242 240 239 238 237 234 233 233 235 237 239 240 241 241 241 240 240 239 238 238 238 238 238 239 238 238 238 239 239 240 241 242 242 243 243 242 242 241 240 239 238 237 237 236 237 237 238 240 242 244 245 246 247 248 248 248
296 295 294 293 292 291 290 289 288 286 284 283 281 279 276 274 272 270 268 267 265 263 260 258 255 252 250 248 246 246 245 243 242 241 241 237 233 230 229 230 232 234 236 237 238 239 239 239 239 239 239 239 239 240 239 239 239 239 240 241 242 243 243 243 243 243 242 241 240 239 238 237 237 237 238 238 239 240 241 242 243 244 244 245 245 246
296 295 294 293 293 292 292 292 291 289 288 286 284 281 280 278 276 274 272 270 268 265 263 260 258 256 253 250 248 247 247 246 246 245 245 243 239 234 230 228 227 229 231 233 235 237 238 240 241 241 241 241 240 240 239 238 238 238 239 240 241 242 243 243 242 241 240 239 238 238 237 237 237 238 239 240 241 241 241 241 242 242 242 243 243 243
298 296 295 295 294 293 293 292 291 291 290 289 287 285 283 281 279 277 276 274 272 269 267 264 262 259 256 254 251 249 248 248 248 248 248 247 245 240 236 233 230 228 228 229 232 235 237 240 242 243 244 243 241 240 238 237 236 236 237 238 239 240 241 241 241 239 238 237 236 236 236 236 237 238 240 241 241 241 241 241 241 241 241 241 240 239
299 298 297 296 295 294 293 292 292 291 291 291 290 288 287 285 283 281 279 278 276 274 271 268 265 262 259 256 254 252 251 250 249 249 249 249 247 245 242 240 236 232 229 228 230 233 236 239 242 245 245 245 243 240 237 235 234 234 234 236 238 239 240 240 239 238 236 235 235 235 235 236 236 238 239 240 240 240 240 240 239 239 239 238 237 236
301 300 299 298 297 295 294 293 293 292 291 291 291 290 289 288 287 285 283 280 278 276 274 271 268 265 263 260 257 255 253 252 251 250 249 249 248 247 245 243 241 237 233 230 230 232 235 237 240 243 244 244 242 240 237 235 234 234 234 235 237 239 239 239 238 237 235 234 234 234 234 235 235 236 237 237 238 238 238 238 237 237 236 236 235 234
302 300 299 298 297 296 295 294 293 292 291 291 290 290 290 291 290 288 285 283 282 280 277 275 273 270 268 265 261 259 256 254 253 251 249 248 248 247 245 244 243 241 238 233 231 231 232 234 236 238 239 239 238 236 235 234 234 234 235 236 237 238 238 238 237 236 235 234 233 233 233 233 234 234 235 235 236 237 237 236 235 234 235 236 237 237
301 301 300 298 296 295 294 293 293 292 291 291 290 290 290 291 291 289 288 287 286 284 280 278 277 275 272 269 266 263 261 259 257 254 252 250 248 246 244 243 242 242 240 237 233 230 229 230 231 232 233 233 232 232 231 232 233 234 235 236 236 236 235 235 234 234 233 232 232 232 232 233 233 234 234 235 235 235 234 233 233 234 237 239 241 241
300 300 299 297 295 294 292 291 290 290 290 290 290 290 290 290 290 290 290 290 289 286 283 281 280 278 275 273 271 268 266 265 263 260 256 254 251 247 244 242 241 241 241 239 236 232 228 226 226 227 227 228 228 229 230 231 232 233 234 234 233 232 232 231 231 230 229 229 229 230 231 232 233 234 235 235 235 234 232 232 233 236 239 241 243 243
299 299 298 296 294 292 290 288 287 287 287 288 289 290 290 291 291 291 291 292 291 289 287 285 283 281 279 278 276 272 268 267 267 265 261 257 254 250 246 243 241 240 240 241 241 237 231 226 225 225 225 225 226 227 229 230 232 233 233 233 232 230 230 229 229 228 227 227 228 229 231 233 234 235 236 235 234 232 231 232 234 238 240 241 242 243
299 299 298 296 294 291 288 285 284 283 284 285 287 289 290 291 292 292 293 293 293 292 292 290 287 284 283 281 279 275 272 270 271 270 266 261 257 253 250 246 244 242 240 241 243 242 237 231 227 225 223 223 224 226 227 229 231 232 232 231 230 229 229 229 229 228 227 227 227 229 231 233 234 235 235 234 232 231 231 233 236 239 240 240 240 241
300 299 299 297 295 292 288 285 282 281 281 282 284 287 289 291 293 294 294 295 295 295 295 293 291 289 286 284 281 279 278 276 275 274 270 266 261 257 253 250 248 245 243 243 243 243 241 236 231 225 221 219 219 221 223 225 227 228 228 228 227 228 228 229 228 228 227 227 228 230 231 233 233 233 232 231 230 230 232 235 237 238 238 238 239 239
301 300 299 298 295 292 288 285 282 281 280 280 282 284 286 289 292 294 295 296 297 297 296 296 295 294 291 288 285 283 282 281 279 278 275 271 267 262 257 254 251 249 247 246 245 244 243 239 235 229 223 216 212 212 214 217 219 221 223 223 224 225 226 227 227 227 227 228 229 230 231 232 232 231 230 229 229 231 233 236 237 237 237 237 237 237
303 302 301 299 297 293 288 285 282 280 280 280 280 282 283 286 288 291 294 296 297 297 298 298 298 297 296 293 290 287 285 283 283 282 280 276 272 268 262 258 255 253 251 249 247 245 244 240 237 232 228 221 213 208 207 208 211 214 216 218 220 222 224 225 226 227 227 228 229 230 231 231 231 230 229 229 230 231 234 235 236 237 237 236 236 235
305 304 303 301 298 294 289 285 282 280 279 279 280 281 282 283 285 288 290 293 294 296 297 298 299 300 300 298 296 293 290 288 287 286 283 280 278 275 270 264 260 257 254 252 249 247 244 241 238 234 232 228 222 215 209 206 206 208 210 213 216 218 220 222 224 225 227 228 229 230 230 231 231 230 230 230 230 231 233 234 235 235 235 234 234 234
307 306 305 303 301 297 291 286 282 280 280 280 280 280 281 282 284 286 287 289 290 292 294 296 298 300 301 301 300 298 296 295 293 290 286 284 282 280 275 270 267 263 259 256 253 249 246 242 239 237 234 232 229 225 220 215 210 207 207 209 211 214 216 219 221 223 225 227 228 229 230 231 231 231 230 230 231 231 232 233 234 234 233 232 232 232
309 308 307 305 303 299 294 289 285 283 282 281 281 280 281 282 283 284 286 287 288 289 291 293 295 297 299 301 301 301 300 299 297 293 290 289 287 284 279 277 275 271 264 260 256 252 248 245 242 239 237 235 233 230 228 226 222 217 211 209 210 211 213 215 218 220 223 225 227 228 229 230 231 230 230 230 230 231 232 233 233 233 232 231 230 231
310 309 308 307 305 302 298 293 289 286 284 283 282 281 281 281 283 284 286 287 288 288 289 291 293 295 297 299 300 300 301 300 299 297 295 294 291 287 283 282 279 276 271 267 261 256 251 247 244 241 239 238 236 234 233 233 232 229 223 216 212 211 212 213 214 217 219 222 225 227 229 230 230 230 229 228 229 230 232 233 234 234 233 231 230 230
311 310 309 308 306 304 301 297 294 290 287 284 283 282 282 282 283 285 286 287 288 288 289 290 292 294 296 298 299 299 300 300 299 299 298 296 293 291 288 285 282 279 278 276 271 263 256 251 246 243 240 239 238 236 235 236 237 236 233 227 220 215 212 212 212 214 217 220 223 226 229 231 231 230 228 228 228 230 231 233 234 234 233 231 229 229
312 310 309 308 306 304 302 300 297 293 290 287 286 285 284 284 284 284 284 285 286 287 288 289 290 292 294 296 298 299 300 299 299 299 298 297 296 294 292 289 286 284 282 280 279 274 266 258 252 247 244 242 240 239 237 237 238 239 239 236 230 223 216 213 212 213 215 219 223 226 229 231 231 230 229 228 228 230 231 232 232 233 232 231 229 228
313 312 310 308 306 304 302 300 298 295 293 291 290 289 287 286 285 284 284 284 285 285 286 286 287 287 289 291 294 297 299 299 299 299 298 297 297 296 294 292 290 288 286 284 282 281 277 270 261 254 249 246 244 242 240 239 239 239 241 240 237 230 222 217 213 213 214 217 221 226 229 231 231 230 229 229 229 230 230 231 231 230 230 229 228 227
315 313 311 309 307 305 303 301 299 297 295 294 292 291 290 288 287 286 286 286 286 285 285 285 286 286 286 287 288 292 295 298 299 299 298 297 297 297 296 295 294 293 291 288 285 283 282 280 273 265 257 252 248 245 244 242 240 240 241 242 241 238 233 225 219 215 214 216 219 223 226 228 229 230 230 230 231 231 231 231 230 229 228 227 226 226
317 315 313 310 308 306 303 301 300 298 297 295 294 293 291 290 289 288 288 288 287 286 286 286 286 286 286 287 287 288 290 293 296 297 297 297 297 297 298 297 297 296 295 293 289 286 284 282 279 274 269 262 255 250 247 245 244 243 242 242 242 241 238 232 225 219 216 215 217 219 223 225 227 228 229 230 231 232 232 232 231 229 227 225 224 224
317 316 314 312 309 307 304 302 300 298 297 296 295 294 292 291 289 289 289 289 288 287 287 287 286 286 286 287 287 287 287 288 290 293 295 296 297 298 298 298 297 297 296 294 292 290 287 283 279 277 276 271 263 257 252 249 247 245 244 244 243 243 241 237 231 225 219 215 214 216 219 221 224 226 228 230 231 233 233 234 232 230 228 225 223 222
318 316 314 312 310 308 305 303 301 298 296 295 294 293 292 291 290 289 289 289 288 288 288 287 287 287 288 288 287 287 286 285 286 287 290 292 294 295 296 296 297 296 296 295 293 292 289 285 281 280 278 274 268 263 258 253 250 248 247 246 245 244 242 240 236 231 225 219 215 214 215 218 220 223 226 228 230 233 234 235 234 232 230 227 224 222
319 317 316 314 312 310 308 305 302 300 297 295 294 293 291 290 289 288 288 288 288 288 287 287 287 288 289 289 288 287 287 286 286 285 285 287 288 291 292 294 294 295 294 293 293 292 290 287 285 283 279 274 270 266 262 257 253 250 249 248 247 246 244 242 239 236 231 225 219 215 214 215 217 220 223 226 229 231 233 235 235 234 231 228 226 223
322 320 318 316 314 312 310 308 305 303 300 298 295 293 292 291 290 288 288 287 286 286 286 286 286 286 287 288 288 287 287 288 287 287 286 286 286 287 288 289 291 291 292 292 292 291 290 289 287 285 281 276 272 268 264 260 256 252 249 248 248 247 246 243 241 238 235 230 225 220 217 215 215 217 220 223 225 228 230 233 234 233 232 230 227 225
323 322 320 318 316 314 312 310 308 306 304 301 298 296 294 292 291 290 289 287 286 286 286 285 285 285 285 286 286 286 286 286 287 287 288 288 288 288 287 287 287 287 288 289 289 289 288 288 287 285 283 280 275 270 265 261 256 253 250 249 248 247 246 245 242 240 237 234 230 226 222 218 216 216 218 219 221 223 226 229 231 231 231 230 228 226
325 323 322 320 318 317 315 313 311 309 307 305 302 300 297 295 294 292 291 289 288 288 287 286 286 285 285 285 285 285 285 285 286 286 287 288 289 289 289 288 287 286 285 284 284 285 285 285 285 284 283 281 278 273 268 262 258 254 251 249 248 247 246 245 244 241 239 237 234 231 227 223 220 217 217 218 219 220 221 223 226 227 229 228 228 226
326 325 323 322 321 319 317 316 314 312 310 308 306 304 302 300 297 295 293 292 291 290 289 288 288 287 287 286 286 285 286 286 287 287 288 289 289 290 290 289 289 287 285 283 281 280 280 280 280 281 281 280 278 275 271 266 261 256 252 249 248 248 246 246 245 243 241 239 237 235 232 229 225 221 219 219 218 217 217 218 220 222 224 225 226 225
Height
3023 3024 3024 3024 3024 3024 3024 3024 3025 3024 3023 3023 3023 3023 3023 3023 3023 3024 3025 3026 3028 3029 3030 3031 3031 3031 3032 3032 3033 3033 3034 3034 3034 3035 3036 3036 3036 3036 3036 3037 3037 3038 3039 3039 3040 3041 3041 3042 3043 3044 3044 3045 3045 3045 3046 3048 3049 3051 3053 3054 3056 3057 3058 3059 3060 3061 3062 3062 3063 3064 3065 3066 3067 3068 3068 3069 3070 3071 3072 3073 3074 3074 3075 3076 3077 3078
3019 3019 3020 3020 3020 3020 3019 3019 3020 3020 3019 3019 3019 3019 3020 3020 3020 3020 3021 3022 3023 3024 3025 3027 3027 3028 3028 3028 3029 3029 3029 3029 3029 3029 3031 3032 3032 3032 3033 3033 3034 3034 3034 3035 3035 3036 3037 3037 3039 3039 3040 3040 3040 3041 3042 3044 3045 3047 3049 3050 3052 3053 3054 3055 3056 3057 3058 3059 3060 3061 3062 3063 3064 3064 3065 3066 3066 3068 3069 3069 3070 3071 3072 3073 3074 3074
3015 3016 3016 3016 3016 3016 3014 3015 3015 3016 3014 3014 3014 3015 3016 3016 3016 3017 3018 3019 3019 3020 3021 3022 3023 3023 3023 3024 3024 3025 3025 3024 3024 3024 3025 3026 3027 3028 3029 3029 3029 3030 3030 3030 3031 3031 3032 3033 3034 3035 3035 3036 3036 3037 3038 3039 3041 3042 3044 3046 3048 3049 3050 3051 3052 3053 3054 3055 3056 3058 3059 3059 3060 3061 3061 3062 3063 3064 3064 3066 3066 3067 3068 3069 3070 3071
3012 3012 3011 3012 3012 3011 3010 3010 3011 3011 3011 3011 3011 3011 3012 3012 3012 3013 3014 3014 3015 3016 3017 3018 3019 3019 3019 3019 3020 3020 3021 3020 3020 3020 3020 3020 3021 3022 3024 3024 3024 3025 3025 3026 3026 3026 3027 3028 3029 3030 3031 3032 3033 3033 3034 3035 3036 3038 3040 3042 3044 3045 3046 3047 3049 3049 3050 3051 3053 3054 3055 3056 3057 3057 3058 3058 3059 3060 3060 3062 3063 3063 3064 3066 3066 3067
3009 3008 3006 3006 3007 3007 3006 3007 3006 3006 3006 3007 3007 3007 3008 3008 3008 3008 3009 3010 3010 3011 3012 3013 3014 3015 3015 3015 3015 3016 3016 3016 3016 3016 3016 3016 3017 3017 3018 3018 3019 3019 3019 3020 3021 3022 3023 3024 3025 3026 3027 3027 3028 3029 3030 3031 3032 3034 3036 3038 3039 3041 3042 3044 3044 3045 3046 3047 3048 3049 3050 3051 3052 3053 3054 3054 3055 3056 3057 3057 3058 3059 3061 3062 3063 3064
3004 3003 3002 3002 3002 3001 3001 3002 3002 3001 3002 3002 3003 3003 3003 3003 3003 3003 3004 3005 3006 3007 3007 3008 3009 3010 3010 3010 3011 3011 3011 3012 3012 3012 3012 3012 3013 3013 3013 3013 3014 3014 3015 3015 3016 3017 3018 3019 3020 3021 3022 3023 3024 3024 3025 3026 3028 3030 3032 3034 3035 3037 3039 3040 3041 3041 3042 3043 3044 3045 3046 3047 3048 3049 3049 3050 3051 3051 3053 3053 3054 3056 3058 3059 3059 3060
2999 2998 2998 2997 2997 2996 2996 2996 2996 2996 2996 2996 2997 2998 2998 2998 2998 2999 2999 3000 3001 3002 3002 3003 3004 3004 3005 3005 3005 3006 3006 3006 3006 3007 3007 3008 3008 3009 3009 3009 3009 3010 3010 3011 3011 3012 3013 3014 3015 3016 3018 3019 3019 3020 3021 3022 3024 3026 3028 3030 3032 3033 3035 3036 3037 3038 3039 3039 3040 3041 3042 3043 3043 3044 3045 3046 3047 3048 3049 3050 3051 3053 3054 3055 3056 3057
2994 2993 2993 2993 2992 2992 2992 2991 2990 2990 2990 2990 2991 2992 2992 2993 2993 2994 2994 2994 2995 2995 2996 2997 2998 2999 2999 3000 3000 3000 3000 3000 3001 3001 3002 3003 3003 3004 3004 3005 3005 3006 3006 3006 3007 3008 3008 3009 3010 3012 3013 3014 3015 3016 3017 3018 3020 3022 3024 3026 3027 3029 3031 3032 3033 3034 3034 3035 3036 3037 3038 3039 3039 3040 3041 3042 3043 3044 3045 3047 3048 3049 3051 3052 3053 3054
2988 2988 2988 2988 2988 2987 2987 2986 2986 2985 2985 2985 2985 2986 2986 2987 2987 2988 2988 2989 2989 2989 2990 2991 2992 2993 2994 2994 2995 2995 2995 2995 2995 2996 2997 2998 2998 2999 2999 3000 3001 3001 3002 3002 3003 3003 3004 3005 3006 3007 3008 3009 3010 3012 3013 3014 3016 3018 3019 3021 3023 3025 3027 3028 3029 3029 3030 3031 3032 3033 3034 3034 3035 3036 3037 3038 3039 3040 3041 3043 3044 3046 3048 3049 3050 3051
2984 2983 2983 2983 2983 2983 2982 2982 2981 2980 2980 2981 2980 2980 2980 2981 2981 2982 2983 2983 2984 2984 2985 2986 2987 2988 2989 2989 2990 2989 2990 2990 2991 2991 2992 2993 2993 2994 2994 2995 2996 2997 2997 2997 2998 2999 3000 3001 3002 3003 3004 3005 3006 3008 3009 3010 3012 3014 3015 3017 3019 3021 3022 3023 3024 3025 3026 3027 3028 3029 3029 3031 3032 3033 3033 3034 3034 3035 3036 3038 3040 3042 3043 3045 3047 3048
2979 2979 2979 2978 2978 2978 2978 2977 2976 2976 2977 2977 2976 2975 2975 2976 2976 2977 2978 2978 2978 2979 2979 2980 2981 2983 2984 2984 2984 2984 2984 2985 2986 2988 2988 2988 2988 2989 2989 2990 2991 2992 2992 2993 2993 2994 2995 2996 2997 2999 2999 3001 3002 3003 3005 3006 3008 3009 3011 3013 3014 3016 3018 3019 3019 3020 3021 3022 3023 3024 3025 3026 3028 3028 3029 3030 3030 3031 3032 3034 3035 3037 3039 3041 3043 3044
2974 2974 2974 2973 2973 2973 2973 2972 2972 2972 2972 2973 2972 2971 2971 2971 2971 2971 2972 2972 2973 2974 2974 2975 2976 2977 2978 2978 2978 2978 2979 2979 2980 2981 2983 2983 2984 2985 2985 2985 2986 2987 2988 2988 2988 2989 2990 2992 2993 2994 2995 2996 2998 2999 3001 3002 3004 3005 3007 3009 3010 3012 3013 3014 3015 3016 3017 3018 3019 3020 3021 3023 3024 3024 3025 3026 3026 3027 3028 3029 3030 3032 3034 3036 3038 3040
2970 2969 2969 2969 2968 2968 2967 2967 2967 2968 2968 2968 2968 2967 2967 2967 2967 2967 2967 2967 2968 2969 2970 2970 2971 2972 2973 2972 2972 2972 2973 2974 2974 2974 2975 2976 2977 2978 2979 2980 2981 2982 2982 2983 2983 2984 2986 2987 2988 2989 2991 2992 2994 2995 2997 2998 3000 3001 3003 3004 3006 3007 3009 3010 3011 3012 3013 3014 3015 3016 3017 3019 3020 3020 3021 3022 3023 3023 3024 3025 3026 3028 3029 3031 3033 3035
2966 2965 2964 2964 2963 2963 2962 2962 2963 2963 2963 2963 2963 2963 2962 2963 2963 2963 2962 2962 2962 2964 2964 2966 2967 2967 2967 2967 2967 2967 2968 2968 2969 2969 2970 2971 2971 2972 2973 2974 2975 2977 2978 2978 2978 2979 2981 2983 2984 2985 2986 2988 2989 2991 2992 2994 2995 2997 2999 3000 3002 3003 3004 3005 3006 3008 3009 3010 3011 3012 3013 3014 3015 3017 3017 3018 3019 3019 3020 3021 3022 3024 3025 3027 3028 3030
2961 2960 2960 2959 2959 2958 2958 2958 2958 2958 2958 2958 2958 2958 2958 2958 2958 2959 2958 2958 2958 2959 2959 2960 2961 2962 2963 2962 2961 2961 2962 2963 2964 2964 2965 2966 2967 2968 2969 2969 2970 2971 2973 2974 2974 2975 2977 2979 2979 2980 2982 2984 2985 2986 2988 2990 2991 2993 2994 2996 2997 2999 2999 3001 3002 3003 3004 3005 3007 3008 3009 3010 3011 3012 3014 3014 3015 3016 3017 3018 3019 3020 3021 3023 3024 3026
2957 2956 2955 2954 2954 2954 2953 2953 2953 2953 2952 2953 2953 2953 2953 2953 2953 2954 2954 2954 2954 2954 2955 2955 2956 2957 2958 2957 2957 2957 2957 2958 2958 2959 2960 2961 2963 2964 2964 2964 2965 2966 2968 2969 2970 2971 2973 2974 2975 2976 2978 2979 2981 2982 2984 2986 2987 2989 2990 2992 2993 2994 2995 2996 2998 2999 3000 3001 3002 3004 3005 3006 3007 3008 3009 3010 3011 3012 3013 3014 3015 3016 3017 3019 3020 3022
2953 2952 2951 2950 2950 2949 2949 2948 2948 2947 2947 2947 2948 2948 2948 2948 2948 2949 2949 2949 2949 2950 2951 2950 2951 2952 2952 2953 2953 2952 2952 2952 2952 2953 2954 2956 2958 2959 2960 2960 2961 2961 2964 2965 2966 2968 2969 2970 2971 2972 2973 2975 2977 2978 2980 2982 2983 2985 2986 2988 2989 2990 2991 2992 2993 2994 2996 2997 2998 2999 3000 3002 3003 3004 3005 3006 3008 3009 3009 3010 3011 3012 3013 3015 3016 3018
2949 2948 2947 2947 2946 2945 2945 2944 2943 2942 2942 2942 2942 2943 2943 2943 2943 2944 2944 2944 2944 2945 2945 2946 2946 2947 2947 2948 2949 2948 2947 2947 2946 2946 2948 2950 2952 2954 2955 2956 2956 2957 2959 2960 2962 2963 2965 2966 2967 2968 2969 2971 2973 2974 2976 2977 2979 2980 2982 2983 2984 2985 2987 2988 2989 2990 2992 2993 2994 2995 2996 2997 2998 2999 3000 3002 3003 3004 3005 3006 3007 3008 3009 3011 3012 3014
2944 2943 2942 2942 2941 2941 2940 2940 2939 2938 2938 2938 2937 2938 2938 2938 2938 2939 2939 2939 2940 2940 2940 2941 2941 2942 2943 2944 2944 2944 2943 2941 2940 2940 2942 2944 2946 2948 2949 2950 2951 2952 2954 2955 2957 2958 2960 2962 2963 2965 2966 2967 2969 2970 2971 2973 2974 2976 2977 2978 2980 2981 2983 2984 2985 2987 2988 2989 2990 2991 2992 2993 2994 2995 2996 2997 2999 3000 3001 3002 3003 3004 3005 3006 3008 3009
2938 2938 2938 2937 2936 2935 2935 2934 2934 2934 2933 2933 2933 2933 2933 2933 2934 2934 2934 2934 2935 2936 2936 2936 2937 2937 2938 2939 2939 2939 2939 2937 2935 2935 2936 2938 2940 2942 2943 2944 2945 2947 2948 2950 2952 2954 2955 2956 2956 2958 2960 2962 2964 2965 2967 2969 2970 2972 2973 2974 2976 2977 2979 2980 2981 2982 2984 2985 2986 2987 2988 2989 2990 2991 2992 2994 2994 2996 2997 2998 2999 3000 3001 3002 3004 3005
2934 2933 2933 2932 2931 2930 2929 2929 2929 2929 2928 2928 2928 2928 2928 2928 2929 2929 2929 2929 2930 2931 2931 2932 2933 2933 2933 2934 2934 2934 2934 2933 2932 2930 2930 2932 2934 2936 2937 2938 2939 2940 2943 2945 2948 2949 2950 2951 2952 2953 2954 2956 2959 2960 2962 2964 2965 2967 2969 2970 2972 2973 2974 2975 2976 2978 2979 2980 2981 2982 2983 2984 2985 2987 2988 2989 2991 2992 2993 2994 2995 2996 2997 2999 3000 3001
2930 2929 2928 2927 2927 2926 2924 2924 2924 2924 2924 2923 2923 2923 2922 2923 2924 2924 2924 2925 2925 2925 2926 2927 2928 2928 2929 2929 2930 2930 2930 2930 2929 2927 2926 2927 2929 2930 2931 2932 2933 2934 2937 2939 2942 2944 2945 2946 2947 2949 2951 2952 2954 2955 2957 2959 2960 2962 2964 2965 2967 2968 2969 2970 2971 2973 2974 2975 2977 2978 2979 2980 2981 2983 2984 2985 2987 2988 2989 2990 2991 2992 2994 2995 2996 2998
2928 2926 2924 2923 2922 2921 2920 2920 2920 2919 2919 2919 2919 2918 2917 2918 2919 2919 2919 2919 2920 2920 2920 2921 2922 2923 2924 2925 2925 2926 2927 2926 2925 2924 2924 2924 2924 2925 2926 2926 2926 2927 2930 2933 2935 2937 2939 2940 2942 2944 2946 2948 2949 2951 2953 2954 2956 2958 2959 2961 2962 2963 2964 2966 2967 2968 2969 2971 2972 2974 2975 2976 2977 2979 2980 2981 2982 2984 2985 2986 2987 2989 2990 2991 2993 2994
2925 2924 2922 2921 2920 2919 2917 2916 2915 2915 2914 2914 2914 2913 2913 2914 2914 2914 2914 2914 2914 2914 2914 2915 2917 2918 2919 2919 2920 2921 2922 2921 2921 2921 2921 2921 2921 2922 2923 2922 2920 2921 2923 2926 2929 2931 2933 2935 2937 2939 2941 2943 2945 2947 2949 2950 2952 2954 2955 2956 2958 2959 2960 2961 2962 2964 2965 2966 2968 2969 2970 2972 2973 2974 2975 2977 2978 2979 2981 2982 2983 2985 2986 2988 2989 2990
2923 2921 2919 2918 2917 2916 2915 2913 2912 2911 2910 2910 2909 2909 2909 2909 2909 2909 2909 2909 2909 2909 2909 2910 2912 2913 2913 2914 2915 2916 2916 2917 2918 2918 2918 2917 2918 2919 2920 2918 2916 2916 2917 2920 2923 2925 2927 2930 2932 2934 2937 2939 2940 2942 2944 2946 2948 2949 2951 2952 2953 2954 2955 2957 2958 2959 2960 2962 2963 2964 2966 2967 2969 2970 2971 2973 2974 2975 2977 2978 2979 2981 2983 2984 2985 2987
2920 2918 2917 2916 2914 2914 2912 2911 2909 2909 2907 2906 2905 2904 2904 2905 2905 2905 2905 2905 2904 2904 2905 2905 2906 2907 2907 2909 2910 2910 2911 2912 2913 2914 2914 2914 2914 2916 2917 2915 2913 2912 2912 2915 2918 2920 2922 2924 2926 2929 2931 2934 2935 2938 2939 2941 2943 2944 2946 2947 2948 2950 2951 2952 2954 2955 2956 2957 2959 2960 2961 2963 2964 2965 2967 2968 2970 2971 2973 2974 2976 2978 2979 2981 2982 2984
2917 2916 2915 2914 2912 2911 2909 2909 2907 2906 2905 2904 2902 2901 2900 2900 2901 2901 2901 2901 2900 2900 2900 2901 2901 2901 2902 2904 2905 2905 2905 2907 2908 2908 2908 2909 2911 2912 2913 2912 2911 2909 2909 2911 2913 2915 2916 2919 2921 2923 2925 2928 2930 2933 2935 2936 2938 2939 2940 2942 2944 2945 2947 2948 2949 2950 2951 2953 2954 2955 2956 2958 2959 2961 2962 2964 2965 2967 2969 2970 2972 2974 2976 2978 2979 2980
2915 2914 2912 2911 2910 2909 2907 2906 2905 2904 2903 2901 2900 2899 2898 2897 2897 2897 2897 2896 2896 2897 2897 2896 2896 2897 2898 2899 2899 2900 2901 2902 2902 2902 2903 2905 2906 2907 2908 2909 2909 2908 2907 2908 2909 2910 2912 2914 2916 2918 2919 2922 2924 2927 2929 2931 2932 2934 2935 2937 2939 2941 2943 2944 2945 2946 2947 2948 2949 2951 2952 2953 2955 2956 2958 2960 2961 2963 2965 2967 2969 2971 2973 2974 2976 2977
2912 2911 2910 2909 2907 2906 2905 2904 2903 2901 2900 2899 2898 2897 2895 2895 2895 2894 2893 2892 2893 2894 2893 2892 2893 2893 2893 2894 2894 2895 2897 2897 2897 2896 2898 2900 2901 2901 2902 2905 2906 2905 2904 2904 2905 2907 2908 2910 2911 2913 2914 2916 2918 2920 2921 2924 2926 2929 2930 2932 2934 2936 2937 2939 2940 2941 2943 2944 2945 2946 2948 2949 2951 2952 2954 2956 2957 2959 2961 2963 2965 2968 2969 2971 2972 2973
2909 2909 2907 2906 2905 2904 2903 2902 2900 2899 2898 2897 2896 2894 2893 2893 2892 2891 2889 2889 2890 2890 2889 2889 2889 2889 2889 2889 2890 2892 2893 2893 2892 2892 2893 2894 2894 2894 2898 2901 2902 2901 2902 2902 2903 2904 2905 2906 2908 2909 2910 2911 2912 2914 2915 2917 2919 2922 2924 2926 2928 2929 2931 2933 2934 2935 2937 2938 2939 2941 2943 2944 2946 2948 2950 2952 2953 2955 2957 2959 2961 2964 2965 2967 2968 2969
2907 2906 2905 2904 2903 2902 2901 2900 2899 2897 2896 2895 2894 2892 2891 2890 2890 2889 2888 2887 2887 2887 2886 2886 2887 2886 2886 2886 2887 2888 2889 2889 2889 2888 2888 2888 2888 2889 2893 2896 2896 2897 2899 2900 2900 2901 2902 2903 2904 2905 2905 2906 2907 2909 2911 2913 2915 2917 2919 2920 2922 2924 2926 2928 2929 2930 2932 2933 2935 2936 2938 2940 2942 2944 2946 2948 2949 2951 2954 2955 2957 2959 2960 2961 2963 2964
2904 2904 2903 2901 2900 2900 2899 2898 2897 2896 2895 2894 2892 2891 2890 2889 2888 2887 2886 2885 2885 2884 2884 2884 2884 2884 2883 2884 2884 2884 2884 2885 2885 2884 2883 2884 2884 2885 2889 2890 2891 2892 2894 2896 2897 2897 2899 2900 2901 2902 2902 2902 2903 2904 2906 2909 2911 2913 2915 2917 2919 2920 2922 2924 2925 2927 2928 2929 2931 2932 2934 2936 2938 2940 2942 2944 2946 2948 2950 2952 2953 2954 2955 2956 2958 2959
2902 2901 2900 2899 2898 2897 2896 2896 2895 2894 2893 2892 2891 2890 2889 2888 2887 2885 2884 2884 2883 2882 2882 2881 2881 2881 2881 2881 2881 2881 2881 2882 2881 2880 2879 2879 2880 2881 2883 2884 2885 2887 2889 2891 2892 2894 2895 2896 2898 2899 2899 2899 2899 2900 2902 2904 2906 2909 2911 2913 2915 2917 2919 2920 2922 2924 2925 2926 2928 2929 2931 2933 2935 2937 2939 2940 2943 2944 2946 2947 2949 2950 2951 2952 2953 2955
2900 2899 2898 2897 2896 2895 2894 2894 2893 2892 2891 2890 2889 2889 2888 2887 2886 2884 2883 2882 2881 2880 2880 2879 2879 2879 2878 2878 2879 2879 2879 2879 2878 2877 2876 2876 2876 2877 2878 2879 2880 2881 2883 2885 2887 2889 2891 2893 2894 2895 2896 2896 2896 2897 2898 2899 2901 2904 2906 2909 2911 2913 2915 2917 2919 2920 2922 2923 2925 2926 2928 2930 2931 2933 2935 2937 2939 2940 2942 2943 2944 2946 2947 2948 2950 2951
2897 2896 2895 2894 2894 2893 2892 2891 2890 2890 2889 2888 2888 2887 2886 2886 2885 2884 2883 2881 2880 2879 2878 2878 2877 2876 2876 2876 2876 2876 2877 2876 2875 2874 2874 2874 2873 2873 2874 2876 2876 2876 2878 2880 2882 2884 2887 2889 2890 2891 2892 2894 2894 2894 2895 2895 2897 2899 2902 2904 2906 2909 2910 2913 2914 2916 2918 2920 2922 2923 2925 2927 2928 2930 2931 2933 2935 2937 2938 2939 2941 2942 2944 2945 2947 2948
2895 2894 2893 2892 2891 2891 2890 2889 2888 2888 2887 2886 2886 2885 2885 2884 2884 2883 2882 2881 2879 2879 2877 2876 2875 2875 2874 2874 2874 2874 2874 2874 2874 2873 2872 2871 2870 2870 2871 2872 2872 2872 2874 2875 2877 2879 2882 2884 2886 2887 2889 2890 2891 2892 2892 2892 2893 2895 2897 2899 2902 2904 2905 2908 2910 2912 2914 2916 2918 2919 2921 2923 2925 2926 2928 2929 2931 2933 2934 2936 2937 2939 2940 2942 2944 2945
2893 2892 2891 2890 2889 2889 2888 2887 2886 2885 2885 2884 2884 2884 2883 2882 2882 2881 2881 2880 2879 2878 2877 2876 2874 2874 2873 2872 2872 2871 2871 2871 2871 2871 2870 2869 2868 2869 2869 2868 2868 2869 2871 2871 2871 2873 2876 2879 2881 2883 2885 2886 2888 2889 2890 2890 2891 2891 2893 2895 2897 2899 2901 2903 2905 2908 2910 2912 2914 2915 2917 2919 2921 2923 2924 2926 2927 2929 2930 2932 2934 2935 2937 2939 2941 2942
2891 2890 2889 2888 2887 2886 2885 2885 2884 2884 2883 2882 2882 2882 2881 2880 2880 2879 2879 2878 2878 2877 2876 2875 2874 2873 2872 2871 2870 2869 2869 2869 2869 2869 2868 2867 2867 2866 2866 2865 2865 2866 2867 2867 2867 2869 2872 2874 2876 2879 2880 2881 2884 2886 2887 2888 2888 2888 2889 2890 2893 2895 2897 2899 2901 2903 2905 2907 2909 2911 2913 2915 2917 2919 2921 2922 2924 2925 2926 2928 2930 2932 2934 2936 2937 2939
2889 2888 2887 2886 2885 2884 2884 2883 2882 2882 2881 2880 2880 2879 2879 2879 2878 2878 2877 2877 2876 2875 2875 2874 2873 2872 2871 2870 2869 2868 2868 2867 2867 2866 2866 2865 2864 2864 2864 2863 2864 2864 2863 2864 2864 2866 2867 2869 2871 2873 2875 2877 2879 2882 2884 2885 2886 2886 2886 2887 2889 2891 2893 2895 2896 2898 2900 2903 2905 2907 2909 2911 2913 2915 2917 2918 2920 2921 2923 2924 2926 2928 2930 2932 2934 2935
2888 2886 2885 2884 2884 2883 2882 2881 2880 2880 2879 2879 2878 2877 2877 2877 2876 2876 2875 2875 2874 2874 2873 2873 2872 2871 2870 2869 2868 2867 2866 2866 2865 2865 2864 2863 2863 2862 2862 2861 2861 2861 2861 2861 2862 2862 2863 2864 2866 2869 2871 2873 2874 2877 2879 2881 2882 2883 2884 2885 2886 2887 2889 2890 2892 2894 2896 2899 2901 2903 2905 2907 2909 2911 2913 2914 2916 2918 2919 2921 2923 2925 2927 2928 2930 2931
2886 2885 2884 2883 2882 2881 2880 2879 2879 2878 2877 2877 2876 2875 2875 2875 2874 2874 2874 2874 2873 2872 2872 2872 2871 2871 2870 2869 2868 2866 2865 2864 2864 2863 2863 2862 2861 2860 2860 2859 2859 2859 2859 2859 2859 2859 2860 2861 2862 2864 2866 2868 2869 2871 2874 2876 2878 2880 2881 2882 2882 2883 2884 2886 2888 2889 2892 2894 2896 2898 2900 2903 2905 2907 2909 2910 2912 2914 2916 2918 2919 2921 2923 2924 2926 2927
2884 2883 2882 2881 2880 2879 2879 2878 2877 2876 2876 2875 2874 2874 2873 2873 2872 2872 2872 2871 2871 2871 2870 2870 2870 2869 2869 2869 2868 2866 2864 2863 2862 2862 2861 2860 2860 2859 2859 2858 2858 2858 2858 2858 2858 2858 2858 2859 2859 2860 2861 2863 2864 2867 2869 2871 2874 2875 2877 2878 2879 2880 2882 2883 2884 2885 2887 2889 2892 2894 2896 2899 2901 2903 2905 2907 2908 2910 2912 2914 2916 2918 2919 2921 2922 2924
2882 2881 2880 2879 2879 2878 2877 2876 2876 2875 2874 2874 2873 2872 2871 2871 2870 2870 2869 2869 2869 2869 2868 2868 2868 2867 2867 2867 2867 2866 2864 2863 2861 2860 2859 2859 2858 2858 2857 2857 2856 2856 2856 2856 2856 2856 2856 2857 2857 2858 2858 2859 2860 2862 2864 2866 2869 2871 2872 2874 2876 2878 2879 2879 2880 2882 2884 2885 2888 2890 2892 2894 2897 2899 2901 2903 2904 2906 2909 2910 2912 2914 2915 2917 2919 2920
2881 2879 2879 2878 2877 2876 2875 2874 2874 2873 2872 2872 2871 2870 2870 2869 2869 2868 2867 2867 2867 2866 2866 2866 2865 2865 2865 2865 2865 2865 2864 2863 2861 2859 2858 2857 2857 2856 2856 2855 2855 2855 2855 2854 2854 2854 2855 2855 2855 2855 2855 2855 2857 2858 2860 2862 2864 2866 2867 2869 2872 2874 2875 2876 2877 2878 2880 2882 2884 2886 2888 2890 2892 2894 2897 2899 2901 2903 2904 2906 2908 2910 2912 2914 2915 2917
2879 2878 2877 2876 2875 2874 2874 2873 2872 2871 2871 2870 2869 2869 2868 2867 2867 2866 2865 2865 2864 2864 2864 2864 2863 2863 2863 2863 2863 2863 2863 2862 2861 2859 2858 2856 2856 2855 2854 2854 2853 2853 2853 2853 2853 2853 2853 2854 2853 2853 2853 2854 2854 2855 2856 2858 2859 2861 2863 2865 2867 2869 2871 2873 2874 2875 2876 2877 2879 2882 2884 2886 2888 2890 2893 2895 2897 2899 2901 2903 2904 2907 2909 2910 2912 2914
2878 2877 2875 2874 2874 2873 2872 2871 2870 2869 2869 2868 2868 2867 2866 2866 2865 2864 2864 2863 2863 2862 2862 2861 2861 2860 2860 2860 2860 2860 2860 2860 2860 2859 2858 2856 2855 2854 2853 2853 2852 2852 2851 2851 2851 2851 2851 2851 2851 2851 2852 2853 2852 2853 2853 2854 2856 2857 2859 2861 2863 2865 2867 2869 2871 2871 2872 2874 2876 2878 2879 2882 2884 2886 2889 2891 2893 2895 2897 2899 2901 2903 2905 2907 2909 2910
2876 2875 2874 2873 2872 2871 2870 2869 2869 2868 2867 2866 2866 2865 2864 2864 2863 2863 2862 2861 2861 2860 2860 2859 2859 2859 2858 2858 2858 2858 2857 2857 2858 2857 2857 2856 2855 2854 2853 2852 2851 2850 2850 2849 2849 2849 2849 2849 2849 2849 2850 2850 2850 2850 2851 2852 2853 2854 2855 2857 2859 2860 2863 2864 2866 2868 2869 2870 2872 2874 2876 2878 2880 2882 2884 2887 2889 2891 2893 2895 2897 2899 2902 2904 2905 2907
2874 2873 2872 2871 2870 2869 2868 2868 2867 2866 2865 2865 2864 2864 2863 2862 2861 2860 2860 2859 2859 2859 2858 2858 2857 2857 2856 2856 2856 2855 2855 2855 2855 2854 2854 2854 2853 2853 2852 2851 2850 2849 2849 2848 2848 2848 2848 2848 2848 2848 2848 2848 2848 2849 2849 2850 2851 2851 2852 2853 2855 2857 2858 2859 2861 2863 2865 2867 2869 2870 2872 2874 2876 2878 2881 2883 2885 2887 2889 2892 2894 2896 2898 2900 2902 2904
2873 2872 2870 2869 2868 2867 2866 2865 2865 2864 2863 2863 2862 2862 2861 2860 2859 2859 2858 2858 2857 2857 2856 2856 2855 2855 2855 2854 2854 2854 2853 2853 2852 2852 2852 2851 2851 2850 2850 2849 2849 2849 2848 2847 2847 2846 2846 2846 2846 2846 2846 2846 2846 2846 2847 2848 2848 2848 2849 2850 2852 2853 2854 2855 2857 2859 2861 2863 2864 2867 2869 2870 2872 2874 2877 2879 2881 2883 2886 2888 2890 2892 2894 2897 2899 2901
2872 2870 2869 2868 2867 2865 2864 2864 2863 2862 2861 2861 2860 2860 2859 2859 2858 2857 2856 2856 2855 2854 2854 2854 2853 2853 2853 2852 2852 2852 2851 2851 2850 2850 2849 2849 2848 2848 2848 2847 2847 2847 2846 2846 2845 2845 2845 2845 2844 2844 2844 2844 2844 2844 2844 2845 2845 2846 2847 2848 2848 2849 2850 2851 2853 2854 2856 2858 2860 2863 2865 2867 2869 2871 2874 2876 2878 2880 2882 2884 2887 2889 2891 2893 2896 2898
2871 2869 2868 2866 2865 2864 2863 2862 2861 2860 2859 2859 2858 2858 2857 2857 2856 2855 2854 2854 2853 2853 2852 2852 2851 2851 2850 2850 2850 2849 2849 2849 2848 2848 2847 2847 2846 2846 2845 2844 2844 2844 2844 2844 2844 2844 2844 2844 2844 2844 2843 2842 2842 2842 2842 2842 2843 2844 2844 2845 2845 2845 2846 2847 2849 2850 2852 2854 2856 2859 2861 2863 2865 2868 2870 2872 2874 2876 2879 2881 2883 2886 2888 2890 2892 2894